| time (UTC) | temp C | wind direction | speed KPH | gust KPH | rain 1hr cm | rain 24hr cm | rain mn cm | humidity % | barometer mb |
| 20260505002024 | 18 | 309 | 0.0 | 1.6 | 0.00 | 0.00 | 0.00 | 58 | 1009.5 |
| 20260505001031 | 20 | 177 | 0.0 | 3.2 | 0.00 | 0.00 | 0.00 | 55 | 1009.3 |
| 20260505000024 | 21 | 155 | 0.0 | 3.2 | 0.00 | 0.00 | 0.00 | 51 | 1009.2 |
| 20260504235031 | 21 | 113 | 3.2 | 4.8 | 0.00 | 0.00 | 0.00 | 49 | 1009.4 |
| 20260504234039 | 22 | 117 | 3.2 | 4.8 | 0.00 | 0.00 | 0.00 | 46 | 1009.0 |
| 20260504233030 | 22 | 111 | 0.0 | 4.8 | 0.00 | 0.00 | 0.00 | 46 | 1008.9 |
| 20260504232024 | 23 | 112 | 1.6 | 6.4 | 0.00 | 0.00 | 0.00 | 45 | 1008.8 |
| 20260504231051 | 23 | 169 | 0.0 | 6.4 | 0.00 | 0.00 | 0.00 | 43 | 1009.0 |
| 20260504230020 | 23 | 227 | 0.0 | 4.8 | 0.00 | 0.00 | 0.00 | 42 | 1009.2 |
| 20260504225050 | 23 | 284 | 3.2 | 9.7 | 0.00 | 0.00 | 0.00 | 42 | 1009.1 |
| 20260504224021 | 24 | 211 | 4.8 | 17.7 | 0.00 | 0.00 | 0.00 | 40 | 1009.1 |
| 20260504223029 | 24 | 265 | 3.2 | 9.7 | 0.00 | 0.00 | 0.00 | 42 | 1009.2 |
| 20260504222035 | 24 | 190 | 6.4 | 14.5 | 0.00 | 0.00 | 0.00 | 40 | 1009.3 |
| 20260504221025 | 24 | 238 | 3.2 | 19.3 | 0.00 | 0.00 | 0.00 | 41 | 1009.2 |
| 20260504220020 | 24 | 203 | 6.4 | 11.3 | 0.00 | 0.00 | 0.00 | 41 | 1009.3 |
| 20260504215031 | 24 | 251 | 6.4 | 11.3 | 0.00 | 0.00 | 0.00 | 39 | 1009.3 |
| 20260504214018 | 24 | 258 | 4.8 | 14.5 | 0.00 | 0.00 | 0.00 | 41 | 1009.5 |
| 20260504213030 | 24 | 230 | 4.8 | 16.1 | 0.00 | 0.00 | 0.00 | 38 | 1009.6 |
| 20260504212023 | 25 | 230 | 8.0 | 19.3 | 0.00 | 0.00 | 0.00 | 39 | 1009.5 |
| 20260504211031 | 25 | 219 | 4.8 | 22.5 | 0.00 | 0.00 | 0.00 | 37 | 1009.5 |
| 20260504210039 | 25 | 259 | 8.0 | 16.1 | 0.00 | 0.00 | 0.00 | 36 | 1009.5 |
| 20260504205030 | 24 | 220 | 6.4 | 16.1 | 0.00 | 0.00 | 0.00 | 40 | 1009.5 |
| 20260504204037 | 23 | 194 | 4.8 | 12.9 | 0.00 | 0.00 | 0.00 | 38 | 1009.5 |
| 20260504203025 | 24 | 202 | 9.7 | 17.7 | 0.00 | 0.00 | 0.00 | 37 | 1009.4 |
| 20260504202035 | 25 | 237 | 9.7 | 19.3 | 0.00 | 0.00 | 0.00 | 35 | 1009.4 |
| 20260504201026 | 25 | 231 | 6.4 | 14.5 | 0.00 | 0.00 | 0.00 | 35 | 1009.4 |
| 20260504200035 | 25 | 205 | 4.8 | 12.9 | 0.00 | 0.00 | 0.00 | 35 | 1009.5 |
| 20260504195044 | 25 | 184 | 3.2 | 22.5 | 0.00 | 0.00 | 0.00 | 37 | 1009.6 |
| 20260504194033 | 25 | 260 | 4.8 | 17.7 | 0.00 | 0.00 | 0.00 | 34 | 1009.8 |
| 20260504193028 | 25 | 218 | 4.8 | 16.1 | 0.00 | 0.00 | 0.00 | 35 | 1009.9 |
| 20260504192035 | 25 | 258 | 6.4 | 14.5 | 0.00 | 0.00 | 0.00 | 34 | 1009.9 |
| 20260504191022 | 25 | 252 | 9.7 | 16.1 | 0.00 | 0.00 | 0.00 | 35 | 1010.2 |
| 20260504190029 | 23 | 103 | 3.2 | 22.5 | 0.00 | 0.00 | 0.00 | 38 | 1010.4 |
| 20260504185023 | 24 | 207 | 9.7 | 20.9 | 0.00 | 0.00 | 0.00 | 38 | 1010.5 |
| 20260504184030 | 23 | 197 | 6.4 | 11.3 | 0.00 | 0.00 | 0.00 | 37 | 1010.7 |
| 20260504183041 | 23 | 265 | 8.0 | 19.3 | 0.00 | 0.00 | 0.00 | 39 | 1010.7 |
| 20260504182030 | 23 | 137 | 8.0 | 14.5 | 0.00 | 0.00 | 0.00 | 38 | 1011.0 |
| 20260504181021 | 23 | 243 | 9.7 | 16.1 | 0.00 | 0.00 | 0.00 | 37 | 1011.1 |
| 20260504180030 | 23 | 166 | 6.4 | 16.1 | 0.00 | 0.00 | 0.00 | 40 | 1011.3 |
| 20260504175019 | 23 | 161 | 6.4 | 14.5 | 0.00 | 0.00 | 0.00 | 38 | 1011.4 |
| 20260504174025 | 22 | 269 | 8.0 | 14.5 | 0.00 | 0.00 | 0.00 | 38 | 1011.4 |
| 20260504173037 | 22 | 209 | 6.4 | 14.5 | 0.00 | 0.00 | 0.00 | 40 | 1011.5 |
| 20260504172023 | 22 | 210 | 4.8 | 12.9 | 0.00 | 0.00 | 0.00 | 37 | 1011.7 |
| 20260504171030 | 22 | 256 | 6.4 | 17.7 | 0.00 | 0.00 | 0.00 | 41 | 1011.9 |
| 20260504151032 | 18 | 254 | 1.6 | 8.0 | 0.00 | 0.00 | 0.00 | 49 | 1013.1 |
| 20260504141027 | 16 | 298 | 6.4 | 16.1 | 0.00 | 0.00 | 0.00 | 56 | 1013.4 |
| 20260504081027 | 11 | 139 | 1.6 | 3.2 | 0.00 | 0.00 | 0.00 | 72 | 1014.6 |
| 20260504045023 | 6 | 77 | 0.0 | 1.6 | 0.00 | 0.00 | 0.00 | 88 | 1014.7 |
| 20260504044030 | 6 | 84 | 3.2 | 4.8 | 0.00 | 0.00 | 0.00 | 88 | 1014.8 |
| 20260504043020 | 6 | 220 | 0.0 | 3.2 | 0.00 | 0.00 | 0.00 | 88 | 1014.7 |
| 20260504042026 | 6 | 220 | 0.0 | 3.2 | 0.00 | 0.00 | 0.00 | 88 | 1014.7 |
| 20260504041056 | 5 | 220 | 0.0 | 3.2 | 0.00 | 0.00 | 0.00 | 87 | 1014.7 |
| 20260504040045 | 5 | 220 | 0.0 | 1.6 | 0.00 | 0.00 | 0.00 | 86 | 1014.5 |
| 20260504035029 | 5 | 220 | 0.0 | 3.2 | 0.00 | 0.00 | 0.00 | 86 | 1014.6 |
| 20260504034036 | 5 | 220 | 0.0 | 0.0 | 0.00 | 0.00 | 0.00 | 85 | 1014.6 |
| 20260504033028 | 6 | 220 | 0.0 | 0.0 | 0.00 | 0.00 | 0.00 | 85 | 1014.6 |
| 20260504032036 | 6 | 220 | 0.0 | 3.2 | 0.00 | 0.00 | 0.00 | 84 | 1014.6 |
| 20260504031020 | 6 | 220 | 0.0 | 1.6 | 0.00 | 0.00 | 0.00 | 82 | 1014.4 |
| 20260504030029 | 6 | 220 | 0.0 | 1.6 | 0.00 | 0.00 | 0.00 | 83 | 1014.4 |
| 20260504025040 | 6 | 220 | 1.6 | 3.2 | 0.00 | 0.00 | 0.00 | 82 | 1014.4 |
| 20260504024025 | 6 | 220 | 0.0 | 1.6 | 0.00 | 0.00 | 0.00 | 80 | 1014.4 |
| 20260504023037 | 6 | 220 | 0.0 | 0.0 | 0.00 | 0.00 | 0.00 | 79 | 1014.5 |
| 20260504022045 | 6 | 220 | 0.0 | 1.6 | 0.00 | 0.00 | 0.00 | 78 | 1014.5 |
| 20260504021035 | 7 | 220 | 0.0 | 1.6 | 0.00 | 0.00 | 0.00 | 77 | 1014.4 |
| 20260504020023 | 7 | 220 | 0.0 | 1.6 | 0.00 | 0.00 | 0.00 | 77 | 1014.3 |
| 20260504015050 | 7 | 220 | 0.0 | 3.2 | 0.00 | 0.00 | 0.00 | 77 | 1014.2 |
| 20260504014018 | 7 | 220 | 1.6 | 3.2 | 0.00 | 0.00 | 0.00 | 75 | 1014.2 |
| 20260504013030 | 7 | 220 | 1.6 | 3.2 | 0.00 | 0.00 | 0.00 | 74 | 1014.2 |
| 20260504012019 | 8 | 220 | 1.6 | 3.2 | 0.00 | 0.00 | 0.00 | 73 | 1014.2 |
| 20260504011026 | 8 | 220 | 0.0 | 1.6 | 0.00 | 0.00 | 0.00 | 72 | 1014.1 |
| 20260504010053 | 8 | 220 | 0.0 | 3.2 | 0.00 | 0.00 | 0.00 | 70 | 1014.0 |
| 20260504005039 | 9 | 220 | 1.6 | 3.2 | 0.00 | 0.00 | 0.00 | 68 | 1013.9 |
| 20260504004032 | 10 | 220 | 1.6 | 3.2 | 0.00 | 0.00 | 0.00 | 66 | 1013.9 |
| 20260504003020 | 10 | 220 | 0.0 | 3.2 | 0.00 | 0.00 | 0.00 | 63 | 1013.7 |